This is the latest recevied weather packets stored in our database for station/object AA6HF. If no packets are shown the sender has not sent any weather packets the latest 1 day(s).
| Time | Temp. | Humidity | Pressure | Rain* | Wind** | Luminosity | Snow |
|---|---|---|---|---|---|---|---|
| 1778030128 | 23.89° C | 28% | 1007.9 hPa | 0 mm | 0.89 m/s, 30° | - | - |
| 1778029824 | 24.44° C | 27% | 1007.9 hPa | 0 mm | 0.89 m/s, 324° | - | - |
| 1778029524 | 24.44° C | 27% | 1008 hPa | 0 mm | 1.34 m/s, 333° | - | - |
| 1778029224 | 24.44° C | 26% | 1008 hPa | 0 mm | 0.89 m/s, 37° | - | - |
| 1778028924 | 24.44° C | 27% | 1008 hPa | 0 mm | 1.34 m/s, 340° | - | - |
| 1778028624 | 23.89° C | 26% | 1008 hPa | 0 mm | 1.79 m/s, 336° | - | - |
| 1778028324 | 23.89° C | 26% | 1007.9 hPa | 0 mm | 1.34 m/s, 56° | - | - |
| 1778028024 | 23.89° C | 26% | 1008 hPa | 0 mm | 0.45 m/s, 27° | - | - |
| 1778027724 | 24.44° C | 26% | 1007.9 hPa | 0 mm | 0.45 m/s, 238° | - | - |
| 1778027424 | 23.89° C | 27% | 1008 hPa | 0 mm | 0.89 m/s, 288° | - | - |
| 1778027124 | 24.44° C | 25% | 1008.1 hPa | 0 mm | 0.45 m/s, 302° | - | - |
| 1778026824 | 24.44° C | 26% | 1008.1 hPa | 0 mm | 0 m/s | - | - |
| 1778026524 | 24.44° C | 27% | 1008 hPa | 0 mm | 0 m/s | - | - |
| 1778026224 | 24.44° C | 26% | 1008 hPa | 0 mm | 0 m/s | - | - |
| 1778025924 | 24.44° C | 27% | 1008.1 hPa | 0 mm | 0 m/s | - | - |
| 1778025624 | 25° C | 26% | 1008 hPa | 0 mm | 0 m/s | - | - |
| 1778025324 | 25° C | 24% | 1008 hPa | 0 mm | 0 m/s | - | - |
| 1778025024 | 25° C | 25% | 1008.1 hPa | 0 mm | 0.45 m/s, 217° | - | - |
| 1778024724 | 25° C | 26% | 1008.1 hPa | 0 mm | 0.89 m/s, 221° | - | - |
| 1778024424 | 25° C | 23% | 1008.1 hPa | 0 mm | 0.45 m/s, 33° | - | - |
| 1778024124 | 25° C | 22% | 1008 hPa | 0 mm | 0 m/s | - | - |
| 1778023824 | 25.56° C | 22% | 1008.1 hPa | 0 mm | 0 m/s | - | - |
| 1778023524 | 25.56° C | 22% | 1008 hPa | 0 mm | 0.45 m/s, 359° | - | - |
| 1778023224 | 25.56° C | 22% | 1008.1 hPa | 0 mm | 1.34 m/s, 331° | - | - |
| 1778022924 | 25.56° C | 22% | 1008.1 hPa | 0 mm | 1.34 m/s, 319° | - | - |
* Rain latest hour (hover to see other rain measurements)
** Current wind speed in m/s (hover to see current wind gust speed)